This is the latest recevied weather packets stored in our database for station/object KE0PRS. If no packets are shown the sender has not sent any weather packets the latest 10 day(s).
| Time | Temp. | Humidity | Pressure | Rain* | Wind** | Luminosity | Snow |
|---|---|---|---|---|---|---|---|
| 1787500308 | 24.44° C | 68% | 1019.8 hPa | 0 mm | - | 225 W/m² | - |
| 1787500007 | 24.44° C | 69% | 1019.7 hPa | 0 mm | - | 203 W/m² | - |
| 1787499702 | 24.44° C | 69% | 1019.9 hPa | 0 mm | - | 192 W/m² | - |
| 1787499402 | 24.44° C | 69% | 1019.7 hPa | 0 mm | - | 214 W/m² | - |
| 1787499098 | 24.44° C | 71% | 1019.9 hPa | 0 mm | - | 269 W/m² | - |
| 1787498796 | 23.89° C | 72% | 1019.7 hPa | 0 mm | - | 356 W/m² | - |
| 1787498492 | 23.89° C | 73% | 1020.1 hPa | 0 mm | - | 276 W/m² | - |
| 1787498187 | 23.89° C | 74% | 1020.2 hPa | 0 mm | - | 246 W/m² | - |
| 1787497884 | 23.33° C | 74% | 1020.4 hPa | 0 mm | - | 237 W/m² | - |
| 1787497579 | 23.33° C | 76% | 1020.7 hPa | 0 mm | - | 249 W/m² | - |
| 1787497274 | 22.78° C | 76% | 1020.8 hPa | 0 mm | - | 213 W/m² | - |
| 1787496973 | 22.78° C | 76% | 1020.9 hPa | 0 mm | - | 193 W/m² | - |
| 1787496673 | 22.78° C | 76% | 1021 hPa | 0 mm | - | 177 W/m² | - |
| 1787496368 | 22.78° C | 77% | 1021.2 hPa | 0 mm | - | 167 W/m² | - |
| 1787496068 | 22.78° C | 77% | 1021.2 hPa | 0 mm | - | 160 W/m² | - |
| 1787495762 | 22.78° C | 77% | 1021.1 hPa | 0 mm | - | 149 W/m² | - |
| 1787495458 | 22.22° C | 78% | 1021 hPa | 0 mm | - | 147 W/m² | - |
| 1787495154 | 22.22° C | 79% | 1021.1 hPa | 0 mm | - | 144 W/m² | - |
| 1787494850 | 22.22° C | 79% | 1021.1 hPa | 0 mm | - | 163 W/m² | - |
| 1787494545 | 22.22° C | 79% | 1021.1 hPa | 0 mm | - | 175 W/m² | - |
| 1787494240 | 21.67° C | 80% | 1021.3 hPa | 0 mm | - | 160 W/m² | - |
| 1787493936 | 21.67° C | 80% | 1021.4 hPa | 0 mm | - | 145 W/m² | - |
| 1787493631 | 21.67° C | 80% | 1021.6 hPa | 0 mm | - | 125 W/m² | - |
| 1787493326 | 21.67° C | 80% | 1021.7 hPa | 0 mm | - | 112 W/m² | - |
| 1787493023 | 21.67° C | 80% | 1021.9 hPa | 0 mm | - | 115 W/m² | - |
* Rain latest hour (hover to see other rain measurements)
** Current wind speed in m/s (hover to see current wind gust speed)